Bluefield, WV

3:19 AM EST on December 09, 2016 (GMT -0500)
Mercer County

Weather History for KBLF - June, 2013

Change the Weather History Date:

Thursday, June 27, 2013

  Actual Average Record
Temperature  
Mean Temperature 71 °F 72 °F  
Max Temperature 76 °F 81 °F 88 °F (2007)
Min Temperature 65 °F 64 °F 50 °F (1981)
Degree Days  
Heating Degree Days 0 0  
Month to date heating degree days 0 21  
Since 1 June heating degree days 0 21  
Since 1 July heating degree days 4686 4587  
Cooling Degree Days 6 7  
Month to date cooling degree days 164 144  
Year to date cooling degree days 278 235  
Since 1 June cooling degree days 164 144  
Growing Degree Days 20 (Base 50)    
Moisture  
Dew Point 64 °F    
Average Humidity 76    
Maximum Humidity 87    
Minimum Humidity 64    
Precipitation  
Precipitation 0.28 in 0.13 in 1.14 in (2005)
Month to date precipitation 4.39 3.75  
Year to date precipitation 22.92 20.57  
Snow  
Snow 0.00 in - - ()
Month to date snowfall 0.0  
Since 1 June snowfall 0.0  
Since 1 July snowfall 56.0  
Snow Depth 0.00 in    
Sea Level Pressure  
Sea Level Pressure 29.86 in    
Wind  
Wind Speed 9 mph (West)    
Max Wind Speed 22 mph    
Max Gust Speed 32 mph    
Visibility 8 miles    
Events Rain    
T = Trace of Precipitation, MM = Missing Value Source: NWS Daily Summary

Daily Weather History Graph

Daily Weather History Graph

Search for Another Location

Airport or City:

Trip Planner

Search our weather history database for the weather conditions in past years. The results will help you decide how hot, cold, wet, or windy it might be!

Date:

Astronomy

Jun. 27, 2013 Rise Set
Actual Time 6:06 AM EDT 8:49 PM EDT
Civil Twilight 5:35 AM EDT 9:20 PM EDT
Nautical Twilight 4:56 AM EDT 9:59 PM EDT
Astronomical Twilight 4:13 AM EDT 10:42 PM EDT
Moon 11:53 PM EDT (6/27) 10:59 AM EDT (6/27)
Length of Visible Light 15h 44m
Length of Day
14h 42m
Waning Gibbous, 76% of the Moon is Illuminated
Jun 27
Waning Gibbous
Jun 30
Last Quarter
Jul 8
New
Jul 15
First Quarter
Jul 22
Full

Hourly Weather History & Observations

Time (EDT) Temp. Dew Point Humidity Pressure Visibility Wind Dir Wind Speed Gust Speed Precip Events Conditions
12:52 AM 70.0 °F 63.0 °F 78% 29.88 in 10.0 mi WSW 6.9 mph - N/A   Partly Cloudy
1:52 AM 70.0 °F 63.0 °F 78% 29.88 in 10.0 mi WSW 3.5 mph - N/A   Partly Cloudy
2:52 AM 72.0 °F 62.1 °F 71% 29.83 in 10.0 mi SSW 8.1 mph - N/A   Scattered Clouds
3:52 AM 70.0 °F 61.0 °F 73% 29.78 in 10.0 mi West 8.1 mph - N/A   Partly Cloudy
4:52 AM 73.0 °F 61.0 °F 66% 29.73 in 10.0 mi SSW 6.9 mph 19.6 mph N/A   Partly Cloudy
5:52 AM 71.1 °F 61.0 °F 70% 29.76 in 10.0 mi WSW 18.4 mph 27.6 mph N/A   Overcast
6:06 AM 69.8 °F 62.6 °F 78% 29.89 in 10.0 mi WSW 19.6 mph 23.0 mph N/A   Overcast
6:16 AM 69.8 °F 62.6 °F 78% 29.89 in 7.0 mi WSW 15.0 mph 24.2 mph 0.00 in Rain Light Rain
6:31 AM 66.2 °F 62.6 °F 88% 29.90 in 5.0 mi West 17.3 mph 24.2 mph 0.02 in Rain Light Rain
6:52 AM 66.9 °F 61.0 °F 81% 29.79 in 10.0 mi West 18.4 mph 25.3 mph 0.02 in   Overcast
7:20 AM 66.2 °F 60.8 °F 83% 29.92 in 10.0 mi West 12.7 mph 23.0 mph N/A   Overcast
7:33 AM 66.2 °F 60.8 °F 83% 29.93 in 10.0 mi West 12.7 mph 20.7 mph N/A   Mostly Cloudy
7:52 AM 66.0 °F 60.1 °F 81% 29.83 in 10.0 mi West 15.0 mph 19.6 mph 0.00 in Rain Light Rain
8:39 AM 66.2 °F 60.8 °F 83% 29.94 in 10.0 mi West 5.8 mph - 0.04 in   Overcast
8:52 AM 66.0 °F 61.0 °F 84% 29.84 in 10.0 mi West 8.1 mph - 0.04 in   Overcast
9:00 AM 66.2 °F 60.8 °F 83% 29.94 in 10.0 mi West 6.9 mph - N/A   Overcast
9:47 AM 66.2 °F 60.8 °F 83% 29.94 in 10.0 mi WSW 5.8 mph - 0.03 in Rain Light Rain
9:52 AM 66.0 °F 61.0 °F 84% 29.84 in 7.0 mi WSW 8.1 mph - 0.04 in Rain Light Rain
10:29 AM 66.2 °F 62.6 °F 88% 29.93 in 5.0 mi West 4.6 mph - 0.04 in Rain Rain
10:40 AM 66.2 °F 62.6 °F 88% 29.92 in 2.5 mi Variable 3.5 mph - 0.08 in Rain Heavy Rain
10:46 AM 66.2 °F 62.6 °F 88% 29.92 in 3.0 mi Calm Calm - 0.08 in Rain Light Rain
10:52 AM 66.9 °F 61.0 °F 81% 29.83 in 4.0 mi NW 3.5 mph - 0.11 in Rain Rain
11:14 AM 66.2 °F 62.6 °F 88% 29.93 in 6.0 mi WSW 3.5 mph - 0.02 in Rain Light Rain
11:39 AM 66.2 °F 62.6 °F 88% 29.93 in 3.0 mi Calm Calm - 0.03 in Rain Light Rain
11:52 AM 66.9 °F 62.1 °F 84% 29.83 in 3.0 mi WSW 5.8 mph - 0.03 in Rain Light Rain
12:29 PM 68.0 °F 64.4 °F 88% 29.92 in 3.0 mi West 8.1 mph - 0.01 in   Overcast
12:45 PM 69.8 °F 64.4 °F 83% 29.92 in 2.5 mi WSW 8.1 mph - 0.01 in   Haze
12:52 PM 69.1 °F 64.0 °F 84% 29.82 in 2.5 mi West 8.1 mph - 0.02 in Rain Light Rain
1:03 PM 69.8 °F 64.4 °F 83% 29.92 in 4.0 mi West 10.4 mph 19.6 mph 0.00 in Rain Light Rain
1:23 PM 69.8 °F 64.4 °F 83% 29.92 in 2.0 mi WSW 10.4 mph - 0.00 in   Haze
1:52 PM 70.0 °F 64.9 °F 84% 29.82 in 3.0 mi West 9.2 mph - 0.01 in   Haze
2:52 PM 72.0 °F 66.0 °F 81% 29.80 in 10.0 mi West 10.4 mph 19.6 mph N/A   Overcast
2:59 PM 71.6 °F 66.2 °F 83% 29.91 in 10.0 mi West 9.2 mph - N/A   Overcast
3:52 PM 73.0 °F 66.0 °F 79% 29.79 in 10.0 mi West 9.2 mph - N/A   Overcast
4:08 PM 73.4 °F 66.2 °F 78% 29.90 in 10.0 mi West 6.9 mph - N/A   Overcast
4:41 PM 73.4 °F 66.2 °F 78% 29.90 in 10.0 mi West 5.8 mph - 0.00 in   Overcast
4:46 PM 73.4 °F 66.2 °F 78% 29.89 in 10.0 mi West 8.1 mph - 0.00 in   Overcast
4:52 PM 73.0 °F 66.0 °F 79% 29.78 in 10.0 mi West 8.1 mph - 0.00 in   Overcast
5:52 PM 75.0 °F 66.0 °F 73% 29.76 in 10.0 mi WNW 10.4 mph - N/A   Overcast
6:16 PM 73.4 °F 66.2 °F 78% 29.87 in 10.0 mi West 6.9 mph - N/A   Overcast
6:48 PM 73.4 °F 66.2 °F 78% 29.87 in 10.0 mi West 8.1 mph - N/A   Mostly Cloudy
6:52 PM 75.0 °F 66.9 °F 76% 29.75 in 10.0 mi West 9.2 mph - N/A   Overcast
7:19 PM 75.2 °F 66.2 °F 73% 29.87 in 10.0 mi West 6.9 mph - N/A   Mostly Cloudy
7:36 PM 73.4 °F 66.2 °F 78% 29.87 in 10.0 mi West 6.9 mph - N/A   Overcast
7:52 PM 73.9 °F 66.9 °F 79% 29.77 in 10.0 mi West 6.9 mph - N/A   Overcast
8:04 PM 73.4 °F 66.2 °F 78% 29.87 in 10.0 mi West 5.8 mph - N/A   Scattered Clouds
8:20 PM 73.4 °F 66.2 °F 78% 29.87 in 10.0 mi West 5.8 mph - N/A   Mostly Cloudy
8:44 PM 73.4 °F 66.2 °F 78% 29.88 in 10.0 mi West 8.1 mph - N/A   Overcast
8:52 PM 72.0 °F 66.0 °F 81% 29.78 in 10.0 mi West 10.4 mph - N/A   Overcast
9:13 PM 71.6 °F 66.2 °F 83% 29.88 in 10.0 mi West 8.1 mph - N/A   Mostly Cloudy
9:52 PM 72.0 °F 66.0 °F 81% 29.79 in 10.0 mi West 3.5 mph - N/A   Overcast
10:36 PM 71.6 °F 66.2 °F 83% 29.90 in 10.0 mi West 5.8 mph - 0.01 in   Overcast
10:52 PM 72.0 °F 66.0 °F 81% 29.80 in 10.0 mi WNW 5.8 mph - 0.01 in   Overcast
11:29 PM 71.6 °F 66.2 °F 83% 29.88 in 9.0 mi WSW 4.6 mph - N/A   Mostly Cloudy
11:52 PM 71.1 °F 66.9 °F 87% 29.79 in 7.0 mi West 5.8 mph - N/A   Overcast